Topeka, KS

10:10 PM CDT on October 23, 2019 (GMT -0500)
Billard Municipal

Weather History for KTOP - August, 2019

Change the Weather History Date:

Thursday, August 8, 2019

  Actual Average Record
Temperature  
Mean Temperature 77 °F 79 °F  
Max Temperature 86 °F 90 °F 110 °F (1934)
Min Temperature 68 °F 68 °F 49 °F (1989)
Degree Days  
Heating Degree Days 0 0  
Month to date heating degree days 0 0  
Since 1 June heating degree days 0 8  
Since 1 July heating degree days 0 0  
Cooling Degree Days 12 14  
Month to date cooling degree days 101 112  
Year to date cooling degree days 980 954  
Since 1 June cooling degree days 868 828  
Growing Degree Days 27 (Base 50)    
Moisture  
Dew Point 67 °F    
Average Humidity 76    
Maximum Humidity 100    
Minimum Humidity 51    
Precipitation  
Precipitation 0.00 in 0.14 in 1.95 in (1910)
Month to date precipitation 2.52 1.07  
Year to date precipitation 31.38 23.40  
Snow  
Snow 0.00 in 0.00 in T in (1910)
Month to date snowfall 0.0 0.0  
Year to date snowfall 18.5 11.3  
Since 1 July snowfall 0.0 0.0  
Snow Depth 0.00 in    
Sea Level Pressure  
Sea Level Pressure 29.91 in    
Wind  
Wind Speed 4 mph (SW)    
Max Wind Speed 13 mph    
Max Gust Speed 19 mph    
Visibility 7 miles    
Events Fog    
T = Trace of Precipitation, MM = Missing Value Source: NWS Daily Summary

Daily Weather History Graph

Daily Weather History Graph

Search for Another Location

Airport or City:

Astronomy

Aug. 08, 2019 Rise Set
Actual Time 6:29 AM CDT 8:26 PM CDT
Civil Twilight 6:00 AM CDT 8:55 PM CDT
Nautical Twilight 5:24 AM CDT 9:30 PM CDT
Astronomical Twilight 4:46 AM CDT 10:09 PM CDT
Moon 3:03 PM CDT (8/8) 12:51 AM CDT (8/8)
Length of Visible Light 14h 55m
Length of Day
13h 57m
First Quarter, 60% of the Moon is Illuminated
Aug 8
First Quarter
Aug 15
Full
Aug 23
Last Quarter
Aug 30
New
Sep 5
First Quarter

Hourly Weather History & Observations

Time (CDT) Temp. Heat Index Dew Point Humidity Pressure Visibility Wind Dir Wind Speed Gust Speed Precip Events Conditions
12:00 AM 70.0 °F - 68.0 °F 93% 29.88 in 0.8 mi Calm Calm - N/A   Mist
12:08 AM 70.0 °F - 68.0 °F 93% 29.87 in 1.0 mi Calm Calm - N/A   Clear
12:11 AM 70.0 °F - 66.9 °F 90% 29.87 in 3.0 mi Calm Calm - N/A   Clear
12:25 AM 70.0 °F - 66.9 °F 90% 29.88 in 10.0 mi Calm Calm - N/A   Scattered Clouds
12:35 AM 70.0 °F - 66.9 °F 90% 29.88 in 3.0 mi Calm Calm - N/A   Mostly Cloudy
12:37 AM 70.0 °F - 68.0 °F 93% 29.88 in 1.2 mi Calm Calm - N/A   Mostly Cloudy
12:40 AM 70.0 °F - 68.0 °F 93% 29.88 in 0.5 mi Calm Calm - N/A Fog Fog
12:53 AM 69.1 °F - 66.9 °F 93% 29.86 in 0.8 mi Calm Calm - N/A   Mist
1:19 AM 69.1 °F - 68.0 °F 96% 29.88 in 0.2 mi Calm Calm - N/A Fog Fog
1:30 AM 69.1 °F - 66.9 °F 93% 29.88 in 1.0 mi Calm Calm - N/A   Mist
1:34 AM 69.1 °F - 66.9 °F 93% 29.88 in 0.5 mi Calm Calm - N/A Fog Fog
1:53 AM 69.1 °F - 66.9 °F 93% 29.85 in 0.2 mi ESE 3.5 mph - N/A Fog Fog
2:33 AM 69.1 °F - 68.0 °F 96% 29.89 in 1.0 mi Calm Calm - N/A   Mist
2:51 AM 69.8 °F - 68.0 °F 94% 29.91 in 10.0 mi SSW 3.5 mph - N/A   Mostly Cloudy
2:53 AM 70.0 °F - 69.1 °F 97% 29.89 in 10.0 mi South 4.6 mph - N/A   Scattered Clouds
3:53 AM 69.1 °F - 66.9 °F 93% 29.89 in 10.0 mi Calm Calm - N/A   Clear
4:53 AM 70.0 °F - 66.9 °F 90% 29.89 in 10.0 mi Calm Calm - N/A   Clear
5:53 AM 72.0 °F - 69.1 °F 91% 29.88 in 10.0 mi WSW 4.6 mph - N/A   Clear
6:53 AM 71.1 °F - 68.0 °F 90% 29.89 in 10.0 mi NE 4.6 mph - N/A   Clear
7:53 AM 71.1 °F - 68.0 °F 90% 29.96 in 10.0 mi SSW 5.8 mph - N/A   Partly Cloudy
8:53 AM 72.0 °F - 66.9 °F 84% 29.95 in 10.0 mi Calm Calm - N/A   Mostly Cloudy
9:53 AM 73.0 °F - 66.0 °F 79% 29.97 in 10.0 mi West 6.9 mph - N/A   Clear
10:53 AM 75.0 °F - 64.9 °F 71% 29.92 in 10.0 mi South 5.8 mph - N/A   Clear
11:53 AM 77.0 °F - 66.0 °F 69% 29.94 in 10.0 mi South 5.8 mph - N/A   Clear
12:53 PM 79.0 °F - 64.9 °F 62% 29.97 in 10.0 mi WSW 8.1 mph 17.3 mph N/A   Scattered Clouds
1:53 PM 81.0 °F 82.7 °F 64.9 °F 58% 29.96 in 10.0 mi WSW 8.1 mph - N/A   Clear
2:53 PM 82.9 °F 85.0 °F 66.0 °F 56% 29.94 in 10.0 mi WNW 8.1 mph 18.4 mph N/A   Clear
3:53 PM 84.0 °F 86.3 °F 66.0 °F 55% 29.93 in 10.0 mi NW 6.9 mph - N/A   Clear
4:53 PM 86.0 °F 88.8 °F 66.9 °F 53% 29.91 in 10.0 mi North 5.8 mph - N/A   Clear
5:53 PM 84.9 °F 87.6 °F 66.9 °F 55% 29.89 in 10.0 mi North 3.5 mph - N/A   Clear
6:53 PM 84.0 °F 85.8 °F 64.9 °F 53% 29.90 in 10.0 mi SSE 3.5 mph - N/A   Clear
7:53 PM 81.0 °F 83.3 °F 66.9 °F 62% 29.91 in 10.0 mi SE 4.6 mph - N/A   Clear
8:53 PM 78.1 °F - 68.0 °F 71% 29.91 in 10.0 mi Calm Calm - N/A   Clear
9:53 PM 75.0 °F - 68.0 °F 79% 29.93 in 10.0 mi Calm Calm - N/A   Clear
10:53 PM 75.0 °F - 68.0 °F 79% 29.94 in 10.0 mi SSW 4.6 mph - N/A   Clear
11:53 PM 73.9 °F - 68.0 °F 82% 29.94 in 10.0 mi SW 3.5 mph - N/A   Clear